Location: Jabiru
(12.6667°S, 132.8333°E)
Time: 19:11:23
(UTC+09:30)

Envisat - Pass Details

Date: 24 October 2019
Orbit: 764 x 766 km, 98.1° (Epoch: 12 November)

Event Time Altitude Azimuth Distance (km) Brightness Sun altitude
Rises 19:13:13 0° 167° (SSE) 3,244 6.3 -9.4°
Reaches altitude 10° 19:15:32 10° 166° (SSE) 2,313 5.5 -10.0°
Maximum altitude 19:20:39 84° 78° (ENE) 776 3.0 -11.2°
Drops below altitude 10° 19:25:43 10° 350° (N) 2,293 5.4 -12.4°
Sets 19:28:00 0° 349° (N) 3,213 6.2 -12.9°
